Overview Statistics Trail Chart Weather Telemetry Raw packets
 

This is the latest recevied weather packets stored in our database for station/object K5GHS-1. If no packets are shown the sender has not sent any weather packets the latest 10 day(s).

<< 25 26 27 28 29 30 31 >>
Time Temp. Humidity Pressure Rain* Wind** Luminosity Snow
1788532731 28.89° C 80% 1013.5 hPa 0 mm - 277 W/m² -
1788532428 28.89° C 81% 1013.6 hPa 0 mm - 261 W/m² -
1788532124 28.33° C 82% 1013.6 hPa 0 mm - 228 W/m² -
1788531819 28.33° C 84% 1013.6 hPa 0 mm - 238 W/m² -
1788531513 27.78° C 86% 1013.6 hPa 0 mm - 222 W/m² -
1788531209 27.78° C 86% 1013.5 hPa 0 mm - 79 W/m² -
1788530905 27.78° C 87% 1013.7 hPa 0 mm - 96 W/m² -
1788530600 27.22° C 88% 1013.6 hPa 0 mm - 184 W/m² -
1788530299 26.67° C 89% 1013.8 hPa 0 mm - 185 W/m² -
1788529994 26.67° C 90% 1013.5 hPa 0 mm - 78 W/m² -
1788529690 26.11° C 91% 1013.5 hPa 0 mm - 170 W/m² -
1788529390 26.11° C 91% 1013.5 hPa 0 mm - 78 W/m² -
1788529085 26.11° C 92% 1013.3 hPa 0 mm - 60 W/m² -
1788528781 25.56° C 92% 1013.4 hPa 0 mm - 92 W/m² -
1788528480 25.56° C 92% 1013.5 hPa 0 mm - 72 W/m² -
1788528175 25.56° C 93% 1013.2 hPa 0 mm - 46 W/m² -
1788527874 25.56° C 93% 1013.2 hPa 0 mm - 52 W/m² -
1788527570 25.56° C 93% 1012.8 hPa 0 mm - 39 W/m² -
1788527270 25° C 93% 1013.1 hPa 0 mm - 39 W/m² -
1788526970 25° C 93% 1013 hPa 0 mm - 31 W/m² -
1788526666 25° C 93% 1012.8 hPa 0 mm - 36 W/m² -
1788526363 25° C 93% 1013 hPa 0 mm - 26 W/m² -
1788526055 25° C 93% 1012.8 hPa 0 mm - 22 W/m² -
1788525752 25° C 93% 1013 hPa 0 mm - 20 W/m² -
1788525452 25° C 93% 1012.7 hPa 0 mm - 16 W/m² -

* Rain latest hour (hover to see other rain measurements)
** Current wind speed in m/s (hover to see current wind gust speed)